Regional Weather Roundup
Issued by NWS

Home | Current Version | Previous Version | Text Only | Print | Product List | Glossary On
Versions: 1 2 3 4 5 6 7 8 9 10 11 12 13 14 15 16 17 18 19 20 21 22 23 24 25 26 27 28 29 30 31 32 33 34 35 36 37 38 39 40 41 42 43 44 45 46 47 48 49 50
000
ASUS44 KJAN 020503
RWRMS

MISSISSIPPI HOURLY WEATHER ROUNDUP
NATIONAL WEATHER SERVICE JACKSON MS
1200 AM CDT THU OCT 02 2014

NOTE: "FAIR: INDICATES FEW OR NO CLOUDS BELOW 12,000 FEET WITH NO
SIGNIFICANT WEATHER AND/OR OBSTRUCTIONS TO VISIBILITY.

MSZ001>002-007>008-010>013-018>021-025>028-034>036-020600-
NORTHWEST MISSISSIPPI

CITY           SKY/WX    TMP DP  RH WIND       PRES   REMARKS
CLARKSDALE     CLOUDY    77  66  69 SE9       29.91S
CLEVELAND      FAIR      76  68  75 SE10      29.89F
GREENWOOD      CLEAR     73  65  75 S6        29.92S
GREENVILLE     PTCLDY    77  67  71 S8        29.89F
GRENADA        FAIR      68  64  88 CALM      29.93S
OLIVE BRANCH   CLEAR     72  64  78 SE7       29.92S
OXFORD         FAIR      68  61  77 SE7       29.95S
TUNICA         CLEAR     72  64  78 S8        29.91R
$$

MSZ003>006-009-014>017-022>024-029>033-037>039-020600-
NORTHEAST MISSISSIPPI

CITY           SKY/WX    TMP DP  RH WIND       PRES   REMARKS
COLUMBUS AFB   CLEAR     69  62  76 SE6       29.95S
CORINTH          N/A     68  63  83 S5        29.94S
GOLDN TRIANGLE CLEAR     72  59  64 SE7       29.95S
STARKVILLE     FAIR      70  63  78 SE3       29.95S
TUPELO         CLEAR     70  62  76 S3        29.94S
$$

MSZ040-058-020600-
CENTRAL MISSISSIPPI

CITY           SKY/WX    TMP DP  RH WIND       PRES   REMARKS
JACKSON INTL   CLEAR     75  70  84 S8        29.94S
JACKSON HAWKNS CLEAR     76  70  82 S10       29.94S
MERIDIAN KEY   CLEAR     69  65  86 S6        29.97S
MERIDIAN NAS   PTCLDY    71  63  75 SE3       29.97S
RAYMOND        MOCLDY    75  70  83 SE5       29.93S
VICKSBURG      MOCLDY    77  72  84 S10       29.91S
$$

MSZ059>079-020600-
SOUTH MISSISSIPPI

CITY           SKY/WX    TMP DP  RH WIND       PRES   REMARKS
BROOKHAVEN     MOCLDY    75  73  94 SE8       29.97R
COLUMBIA       FAIR      73  72  94 S3        29.95S
HATTIESBURG    CLEAR     75  72  90 SE3       29.97S
MCCOMB         CLOUDY    75  72  90 SE7       29.95F
NATCHEZ        CLOUDY    75  72  88 SE8       29.93S
PINE BELT      PTCLDY   N/A N/A N/A S5        29.97F
$$

MSZ080>082-020600-
COASTAL MISSISSIPPI

CITY           SKY/WX    TMP DP  RH WIND       PRES   REMARKS
BILOXI         MOCLDY    80  74  83 S9        29.96S
PASCAGOULA     CLEAR     71  70  96 CALM      29.96F
GULFPORT       CLOUDY    80  74  81 SE9       29.95S
$$


USA.gov is the U.S. government's official web portal to all federal, state and local government web resources and services.